www.pogodaiklimat.ru

Погода и климат >> Архив погоды >> Россия >> Якутия >> Ленск


АРХИВ ПОГОДЫ в Ленске

Время (UTC), дата Ветер
(напр.,м/с)
 
Видим.   Явления Облачность Т
(С)
Тd
(С)
f
(%)
Тe
(С)
Тes
(С)
Комфортность P
(гПа)
Po
(гПа)
Тmin
(С)
Tmax
(С)
R
(мм)
R24
(мм)
S
(см)
21 18.08 нст 1 20 км слаб. ливневой дождь 10/10 800 м
[Cb cap]
+11.8 +11.4 97 +12 +12 1010.5 981.8
00 19.08 нст 1 20 км слаб. ливневой дождь 10/10 300 м
[Cb cap]
+11.1 +10.7 97 +11 +11 1010.8 982.1 +10.4 5
03 19.08 З 2 20 км слаб. ливневой дождь 10/10 330 м
[Cb cap]
+12.8 +11.9 94 +12 +12 1010.4 981.8
06 19.08 З 2 20 км слаб. ливневой дождь 10/10 300 м
[Cb cap]
+13.6 +12.5 93 +13 +13 1010.1 981.6
09 19.08 нст 1 50 км в посл. час ливневой дождь 10/8 870 м
[Cb cap Ac trans Ci fib]
+13.9 +12.2 89 +14 +14 1010.0 981.5
12 19.08 нст 1 50 км {ливн. осадки} 10/6 300 м
[Cb cap Ac As Ci fib]
+11.8 +11.6 99 +12 +12 1010.6 981.9 +14.7 4
15 19.08 ЮЗ 1 4000 м слаб. ливневой дождь 10/10 200 м
[Cb cap]
+11.3 +10.9 97 +11 +11 1011.0 982.3
18 19.08 штиль 0 4000 м слаб. дождь 10/10 200 м
[Frnb Ns]
+11.3 +10.9 97 +11 +11 1011.1 982.4
21 19.08 штиль 0 2000 м слаб. дождь 10/10 300 м
[Frnb Ns]
+11.0 +11.0 100 +10 +10 1011.4 982.6
00 20.08 нст 1 4000 м в посл. час морось {дождь} 9/9 150 м
[Cb cap]
+11.3 +10.7 96 +11 +11 1011.8 983.1 +10.9 0.8
03 20.08 нст 1 50 км 10/10 360 м
[Cb cap]
+13.7 +11.3 85 +14 +14 1012.3 983.7
06 20.08 нст 1 50 км {ливн. осадки} 9/9 900 м
[Cb cap]
+15.7 +10.6 72 +16 +17 1012.3 983.9
09 20.08 нст 1 50 км в посл. час ливневой дождь 9/6 1050 м
[Cb cap Ac cuf]
+15.5 +12.6 83 +16 +17 1012.6 984.2
12 20.08 нст 1 50 км {ливн. осадки} 10/3 1000 м
[Cb cap Ac cuf Ci fib]
+14.8 +13.7 93 +15 +15 1013.7 985.3 +17.5 0.5
15 20.08 нст 1 4000 м дымка 8/0
[Ac trans Ci fib]
+11.8 +11.2 96 +12 +12 1014.7 985.9
18 20.08 50 км 10/0
[Ac trans Ci fib]
+10.3 +9.9 97 1015.0 986.1
21 20.08 штиль 0 50 км 10/3 300 м
[St Ac und]
+10.2 +10.0 99 +9 +9 1015.5 986.5
00 21.08 нст 1 4000 м дымка 10/6 240 м
[St Ac trans Ci fib]
+12.4 +11.8 96 +12 +13 1015.7 986.9 +9.7
03 21.08 В 2 50 км 10/6 1380 м
[Cb cap Ac trans Ci fib]
+15.4 +13.4 88 +15 +17 1015.6 987.1
06 21.08 нст 1 20 км слаб. ливневой дождь 10/9 1140 м
[Cb cap Ac und]
+16.0 +15.3 96 +17 +17 1015.5 987.1
09 21.08 нст 1 20 км слаб. ливневой дождь 10/9 1080 м
[Cb cap Ac und]
+15.0 +14.3 96 +15 +16 1015.4 986.9
12 21.08 нст 1 50 км в посл. час ливневой дождь 10/8 1000 м
[Cb cap Ac und]
+15.4 +14.9 97 +16 +16 1015.4 986.9 +17.1 6
15 21.08 нст 1 20 км слаб. ливневой дождь 10/8 1050 м
[Cb cap Ac und]
+13.9 +13.5 97 +14 +14 1015.2 986.6
18 21.08 нст 1 20 км слаб. ливневой дождь 10/10 330 м
[Cb cap]
+13.4 +13.0 97 +13 +13 1014.8 986.2
21 21.08 нст 1 2000 м дымка {ливн. осадки} 10/10 180 м
[St]
+12.8 +12.8 100 +13 +13 1014.6 985.9
00 22.08 З 2 4000 м дымка {ливн. осадки} 10/10 180 м
[St]
+14.0 +13.8 99 +13 +13 1014.6 986.1 +12.5 2
03 22.08 З 2 50 км 8/8 450 м
[St]
+16.5 +14.0 85 +17 +18 1014.1 985.8
06 22.08 ЮЗ 2 50 км гроза без осадков 10/8 1080 м
[Cb calv Ac cuf Ci fib]
+19.6 +12.9 65 +22 +23 комфорт 1012.7 984.7
09 22.08 З 3
{11}
50 км {гроза} 8/6 1300 м
[Cb calv Ac cuf Ci ing]
+18.4 +10.6 60 +19 +20 1012.4 984.3
12 22.08 нст 1 50 км {гроза} 9/4 1000 м
[Cb cap Ac trans Ci fib]
+14.8 +13.2 90 +15 +15 1013.2 984.7 +20.6
15 22.08 нст 1 50 км 10/4 1000 м
[Cb cap Ac trans Ci fib]
+11.6 +11.0 96 +11 +11 1013.8 985.0
18 22.08 нст 1 50 км 8/3 1000 м
[Cb cap Ac trans Ci fib]
+10.9 +10.5 97 +10 +10 1014.3 985.4
21 22.08 штиль 0 4000 м дымка 8/6 300 м
[Cb cap Ci fib]
+7.6 +7.4 99 +7 +7 1014.8 985.6
00 23.08 штиль 0 200 м туман ?/? +7.2 +7.2 100 +6 +6 1015.1 985.8 +6.4 0.0
03 23.08 50 км в посл. час туман 8/6 200 м
[St Ci fib]
+12.0 +11.2 95 1014.0 985.2
06 23.08 ЮЗ 3 50 км {туман} 10/5 1000 м
[Cu med, cong Ci fib]
+19.7 +10.5 55 +21 +24 комфорт 1011.7 983.7
09 23.08 ЮЗ 2 50 км 8/6 1200 м
[Cb cap Ac cuf Ci fib]
+19.0 +9.6 54 +20 +21 1010.9 982.9
12 23.08 нст 1 50 км 6/3 1000 м
[Cb cap Ac cuf Ci ing]
+16.2 +12.6 79 +17 +17 1011.4 983.2 +21.2
15 23.08 нст 1 50 км 3/3 1500 м
[Sc Ci fib]
+11.3 +10.5 95 +11 +11 1012.1 983.4
18 23.08 нст 1 4000 м дымка ясно +7.4 +7.0 97 +6 +6 1012.2 983.0
21 23.08 штиль 0 500 м туман ?/? +7.6 +7.6 100 +6 +6 1011.9 982.8
00 24.08 нст 1 500 м туман ?/? +9.1 +8.5 96 +8 +8 1011.5 982.5 +6.4 0.1
03 24.08 50 км {туман} 6/1 1000 м
[Cu hum Ci fib]
+17.3 +12.4 73 1009.9 981.8
06 24.08 нст 1 50 км {туман} 8/4 1000 м
[Cu med, cong Ac trans Ci fib]
+21.0 +10.8 52 +24 +28 комфорт 1008.5 980.7
09 24.08 50 км 8/3 1000 м
[Cu med, cong Ci fib]
+21.5 +11.7 54 1007.7 980.1
12 24.08 штиль 0 50 км 10/0
[Ac trans Cs]
+17.1 +14.7 86 +17 +17 1008.3 980.3 +22.3
15 24.08 50 км 10/3 1000 м
[Cb cap Ac trans Ci fib]
+13.4 +12.1 92 1008.8 980.4
18 24.08 нст 1 20 км слаб. ливневой дождь 10/6 1000 м
[Cb cap Ac und]
+12.6 +11.9 95 +13 +13 1009.4 980.8
21 24.08 нст 1 20 км слаб. дождь 10/6 1080 м
[Sc Ac trans Cs]
+12.8 +12.2 96 +13 +13 1009.7 981.1
00 25.08 нст 1 20 км ливневой дождь 10/9 1080 м
[Cb cap Ac und]
+13.0 +12.9 99 +13 +13 1009.9 981.4 +12.1 3
03 25.08 нст 1 50 км в посл. час ливневой дождь 10/8 1080 м
[Cb cap Ac und]
+13.8 +12.9 94 +14 +15 1011.0 982.5
06 25.08 нст 1 50 км {ливн. осадки} 10/8 1080 м
[Cb cap Ac und]
+15.0 +13.4 90 +15 +16 1010.8 982.5
09 25.08 50 км 10/4 1000 м
[Cb cap Ac trans Ci fib]
+16.4 +13.6 84 1011.3 983.1
12 25.08 штиль 0 50 км 4/0
[Ac trans Ci fib]
+13.8 +12.9 94 +13 +13 1011.9 983.4 +17.0 5
15 25.08 штиль 0 4000 м дымка 6/6 180 м
[St]
+10.2 +9.8 97 +9 +9 1012.8 983.9

 

Местоположение метеостанции Ленск (Якутия, Россия): широта 60.72 долгота 114.80 высота над уровнем моря 241 м.

В архиве по умолчанию представлена погода в Ленске за последнюю неделю. Архивные данные за месяц целиком и за предыдущие месяцы, начиная с января 2011 года, Вы можете получить, выбрав интересующий диапазон дат из раскрывающегося списка и нажав кнопку "Ввод!".


*Определитесь, кто Вы:
робот инопланетянин человек

Внимание! Время в таблицах - всемирное. Для получения местного времени необходимо прибавить поправку, которая равна 9 ч.

Смотрите также архив погоды в соседних городах и на ближайших метеорологических станциях:

Погода в Дорожном (Якутия, Россия) (101 км)
Погода в Комаке (Якутия, Россия) (177 км)
Погода в Маче (Якутия, Россия) (177 км)
Погода в Крестяхе (Якутия, Россия) (186 км)
Погода в Витиме (Якутия, Россия) (190 км)
Погода в Мирном (Якутия, Россия) (208 км)
Погода в Сунтаре (Якутия, Россия) (219 км)
Погода в Перевозе (Иркутская область, Россия) (224 км)
Погода в Килиере (Якутия, Россия) (245 км)
Погода в Туой-Хае (Якутия, Россия) (277 км)

Пояснения к столбцам:

Ветер - указаны скорость ветра в м/с - средняя за 10 мин, порывы в срок и между сроками (в фигурных скобках) и направление, откуда дует ветер: С - северный, СВ - северо-восточный, В - восточный, ЮВ - юго-восточный, Ю - южный, ЮЗ - юго-западный, З - западный, СЗ - северо-западный.
Видимость - горизонтальная дальность видимости в метрах или километрах. При видимости от 1 до 10 км при отсутствии осадков обычно наблюдается дымка, при ухудшении видимости до 1 км и менее - туман. В сухую погоду видимость может ухудшаться дымом, пылью или мглою.
Явления - указаны атмосферные явления, наблюдавшиеся в срок или в последний час перед сроком; фигурными скобками обозначены явления, наблюдавшиеся между сроками (за 1-3 часа до срока); квадратными скобками обозначены град или гололедные отложения с указанием их диаметра в мм.
Облачность - указаны через наклонную черту общая и нижняя облачность в баллах и высота нижней границы облаков в метрах; квадратными скобками обозначены формы облаков: Ci - перистые, Cs - перисто-слоистые, Cc - перисто-кучевые, Ac - высококучевые, As - высокослоистые, Sc - слоисто-кучевые, Ns - слоисто-дождевые, Cu - кучевые, Cb - кучево-дождевые. Подробнее классификацию облаков см. в Атласе облаков (PDF).
T - Температура воздуха - температура, измеренная на высоте 2 м над землей.
Td - Температура точки росы - температура, при понижении до которой содержащийся в воздухе водяной пар достигнет насыщения.
f - Относительная влажность воздуха - влажноcть воздуха, измеренная на высоте 2 м над землей.
Te - Эффективная температура - температура, которую ощущает одетый по сезону человек в тени. Характеристика душности погоды. При расчете учитывается влияние влажности воздуха и скорости ветра на теплоощущения человека.
Tes - Эффективная температура на солнце - температура, которую ощущает человек, с поправкой на солнечный нагрев. Характеристика знойности погоды. Зависит от высоты солнца над горизонтом, облачности и скорости ветра. Ночью, в пасмурную погоду, а также при ветре 12 м/с и более поправка равна нулю.
P - Атмосферное давление - приведенное к уровню моря атмосферное давление.
Po - Атмосферное давление - измеренное на уровне метеостанции атмосферное давление.
Tmin - Минимальная температура - минимум температуры воздуха на высоте 2 м над землей.
Tmax - Максимальная температура - максимум температуры воздуха на высоте 2 м над землей.
R - Количество осадков - Количество выпавших осадков за период времени, мм. При наведении курсора мыши на число - период времени, за который выпало указанное количество осадков.
R24 - Количество осадков - Количество выпавших осадков за 24 часа, мм.
S - Снежный покров - Высота снежного покрова, см. При наведении курсора мыши на число - состояние снежного покрова и степень покрытия местности в баллах.